Location: Santa Barbara
(34.4500°N, 119.7700°W)
Time: 12:03:05
(UTC-08:00)

Cosmos 1626 Rocket - Visible Passes

Search period start: 06 March 2015 00:00
Search period end: 16 March 2015 01:00
Orbit: 604 x 632 km, 82.5° (Epoch: 05 March)

Date Brightness Start Highest point End Pass type
(mag) Time Alt. Az. Time Alt. Az. Time Alt. Az.
06 Mar 6.9 04:46:40 10° ESE 04:48:56 14° E 04:51:26 10° NE visible
07 Mar 5.9 05:02:10 10° SSE 05:05:54 27° E 05:09:43 10° NNE visible
08 Mar 4.5 06:18:34 10° S 06:22:54 54° E 06:27:17 10° NNE visible
09 Mar 3.5 06:35:31 10° S 06:39:59 75° W 06:44:26 10° N visible
10 Mar 6.7 05:17:12 10° ESE 05:19:34 15° E 05:22:09 10° NE visible
11 Mar 5.7 05:32:45 10° SSE 05:36:31 28° E 05:40:22 10° NNE visible
12 Mar 4.3 05:49:11 10° S 05:53:32 56° E 05:57:53 10° NNE visible
13 Mar 3.5 06:06:09 10° SSW 06:10:36 73° W 06:15:02 10° N visible
14 Mar 6.5 04:47:43 10° ESE 04:50:10 15° E 04:52:49 10° NE visible
14 Mar 4.1 06:23:38 10° SSW 06:27:45 36° W 06:31:51 10° NNW visible
15 Mar 5.5 05:03:20 10° SSE 05:07:08 29° E 05:10:59 10° NNE visible
15 Mar 5.0 06:41:48 10° WSW 06:45:03 19° WNW 06:48:10 10° NNW visible
